Time,B instrument,Bx,By,Bz,sigma B,Ion instrument,Status,Tp_par,Tp_perp,carrot,r_sun,clat,clong,earth_he_angle,n_p,vp_x,vp_y,vp_z,vth_p_par,vth_p_perp
1980-03-11 00:22:18,-1,nan,nan,nan,nan,1,3,nan,nan,1692,0.96385604,-1.6843786,22.145508,278.78223,nan,294.811,3.78947,5.9144,nan,nan
1980-03-11 01:05:30,-1,nan,nan,nan,nan,1,3,nan,nan,1692,0.96377844,-1.6870384,21.74292,278.77417,nan,295.085,0.401878,0.383427,nan,nan
1980-03-11 01:48:42,-1,nan,nan,nan,nan,1,3,nan,nan,1692,0.96370071,-1.6896992,21.336426,278.76611,nan,290.491,-9.99429,-8.07419,nan,nan
1980-03-11 02:31:54,-1,nan,nan,nan,nan,1,3,nan,nan,1692,0.96362275,-1.6923599,20.933838,278.75806,nan,290.496,-5.30421,-8.34274,nan,nan
1980-03-11 03:15:06,-1,nan,nan,nan,nan,1,3,nan,nan,1692,0.96354288,-1.6950836,20.531006,278.74976,nan,293.283,-10.6712,-8.19834,nan,nan
1980-03-11 03:58:18,-1,nan,nan,nan,nan,1,3,nan,nan,1692,0.96346474,-1.6977453,20.124512,278.7417,nan,312.437,11.9785,6.92901,nan,nan
1980-03-11 04:41:30,-1,nan,nan,nan,nan,1,3,nan,nan,1692,0.96338636,-1.7004061,19.721924,278.73364,nan,312.037,7.17918,11.0116,nan,nan
1980-03-11 05:24:42,-1,nan,nan,nan,nan,1,3,nan,nan,1692,0.96330786,-1.7030678,19.319336,278.72559,nan,320.8,2.86629,-1.39627,nan,nan
1980-03-11 06:07:54,-1,nan,nan,nan,nan,1,3,nan,nan,1692,0.96322924,-1.7057295,18.916748,278.71753,nan,296.708,2.30957,-12.6742,nan,nan
1980-03-11 06:51:06,-1,nan,nan,nan,nan,1,3,nan,nan,1692,0.96314859,-1.7084532,18.51001,278.70923,nan,305.648,5.38282,8.15256,nan,nan
1980-03-11 07:05:22,-1,nan,nan,nan,nan,1,4,nan,nan,1692,0.9631229,-1.7093201,18.378662,278.70679,nan,nan,nan,nan,nan,nan
1980-03-11 07:34:18,-1,nan,nan,nan,nan,1,3,nan,nan,1692,0.96306968,-1.7111158,18.107422,278.70117,nan,307.027,5.10207,6.25171,nan,nan
1980-03-11 07:48:34,-1,nan,nan,nan,nan,1,3,nan,nan,1692,0.96304393,-1.7119827,17.976074,278.69873,nan,316.725,-11.2833,-21.6837,nan,nan
1980-03-11 09:11:39,-1,nan,nan,nan,nan,1,3,nan,nan,1692,0.96289116,-1.7171221,17.19873,278.68311,nan,294.877,3.34707,0.736096,nan,nan
1980-03-11 09:13:00,-1,nan,nan,nan,nan,1,3,nan,nan,1692,0.96288747,-1.7172461,17.186768,278.68286,nan,296.996,4.23564,-0.622372,nan,nan
1980-03-11 09:14:21,-1,nan,nan,nan,nan,1,3,nan,nan,1692,0.96288562,-1.717308,17.174805,278.68262,nan,297.138,4.05902,1.54369,nan,nan
1980-03-11 09:14:49,-1,nan,nan,nan,nan,1,3,nan,nan,1692,0.96288562,-1.717308,17.170898,278.68262,nan,298.867,4.8035,0.0207033,nan,nan
1980-03-11 09:16:10,-1,nan,nan,nan,nan,1,3,nan,nan,1692,0.96288192,-1.7174311,17.154785,278.68213,nan,296.858,8.17304,2.41459,nan,nan
1980-03-11 09:17:31,-1,nan,nan,nan,nan,1,3,nan,nan,1692,0.96288007,-1.7174931,17.143066,278.68213,nan,300.823,2.63149,3.00559,nan,nan
1980-03-11 09:18:52,-1,nan,nan,nan,nan,1,3,nan,nan,1692,0.96287823,-1.717555,17.131104,278.68188,nan,303.0,-1.96698,3.87342,nan,nan
1980-03-11 10:32:12,-1,nan,nan,nan,nan,1,4,nan,nan,1692,0.96274143,-1.7221384,16.445313,278.66797,nan,nan,nan,nan,nan,nan
1980-03-11 10:33:33,-1,nan,nan,nan,nan,1,3,nan,nan,1692,0.96273959,-1.7222004,16.43335,278.66772,nan,299.392,9.08024,7.93569,nan,nan
1980-03-11 10:34:54,1,0.08,2.78,2.94,0.324962,1,1,54650.5,39044.4,1692,0.96273774,-1.7222624,16.421387,278.66748,5.22417,299.746,12.7994,8.69139,30.0369,25.3885
1980-03-11 10:36:15,1,-0.666667,2.76667,2.78333,0.25,1,1,71794.4,37301.5,1692,0.96273404,-1.7223864,16.409424,278.66724,5.61053,298.252,8.03299,7.38474,34.4273,24.8154
1980-03-11 10:37:01,1,-0.06,2.52,3.02,0.299333,1,1,57516.6,40731.4,1692,0.9627322,-1.7224483,16.401367,278.66699,5.48215,299.154,13.1096,9.2571,30.8144,25.9312
1980-03-11 10:38:22,1,-0.133333,2.46667,2.96667,0.251661,1,1,71712.2,36008.6,1692,0.96273035,-1.7225103,16.389404,278.66675,5.56736,298.631,9.49646,9.10646,34.4076,24.3815
1980-03-11 10:39:43,1,-0.85,2.48333,2.93333,0.299073,1,1,72942.7,42628.9,1692,0.9627285,-1.7225723,16.377686,278.66675,5.72343,294.199,7.73426,9.61687,34.7016,26.5283
1980-03-11 10:41:04,1,-0.466667,2.51667,2.76667,0.35473,1,1,102827.0,35588.9,1692,0.9627248,-1.7226954,16.361572,278.66626,5.8731,294.805,7.56954,13.8992,41.2014,24.239
1980-03-11 10:42:25,1,-0.36,2.34,2.76,0.339411,1,1,67170.9,42453.3,1692,0.9627229,-1.7227573,16.349609,278.66602,5.65411,296.12,12.7389,8.96038,33.3003,26.4736
1980-03-11 10:43:46,1,0.166667,2.55,2.7,0.260875,1,1,62944.1,33412.1,1692,0.96272105,-1.7228193,16.337891,278.66602,6.01914,294.008,9.50291,12.6549,32.2356,23.486
1980-03-11 10:45:07,1,0.04,2.6,2.7,0.241661,1,1,28584.6,30024.8,1692,0.96271735,-1.7229433,16.325684,278.66553,4.99575,295.218,16.1645,12.7943,21.7232,22.2637
1980-03-11 10:47:48,-1,nan,nan,nan,nan,1,3,nan,nan,1692,0.96273053,-1.5736432,16.218842,278.58212,nan,294.27,12.2976,13.5997,nan,nan
1980-03-11 10:49:09,1,-1.48,1.98,3.34,0.331059,1,1,65969.3,34516.6,1692,0.96272808,-1.5737271,16.202972,278.58188,5.50891,292.65,6.05766,18.1371,33.0011,23.8711
1980-03-11 10:50:39,1,-1.36,1.88,2.94,0.366606,1,1,53478.4,34439.0,1692,0.96270812,-1.7232533,16.273926,278.66455,6.01265,298.891,9.84839,12.843,29.713,23.8442
1980-03-11 10:50:40,1,-1.36,1.88,2.94,0.366606,1,1,55363.7,39374.1,1692,0.96270812,-1.7232533,16.273926,278.66455,5.49669,288.505,10.3568,11.9628,30.2322,25.4955
1980-03-11 10:51:51,1,-1.08,2.06,2.96,0.344093,1,1,58060.6,36844.9,1692,0.96270627,-1.7233152,16.261963,278.66431,5.97221,288.558,10.893,11.2974,30.9598,24.663
1980-03-11 10:53:13,1,-1.14,2.32,2.08,0.278568,1,1,52418.1,34433.5,1692,0.96270257,-1.7234392,16.25,278.66406,6.07144,288.317,16.0103,8.48173,29.417,23.8423
1980-03-11 10:54:34,1,-1.24,2.1,2.72,0.303315,1,1,51841.8,32430.4,1692,0.96270072,-1.7235012,16.238037,278.66382,5.83782,286.077,11.5807,12.2071,29.2548,23.1384
1980-03-11 10:55:55,1,-1.48,2.26,2.42,0.183303,1,1,48636.9,38135.7,1692,0.96269888,-1.7235632,16.226074,278.66357,6.06752,285.906,12.7982,9.1813,28.3361,25.0913
1980-03-11 10:57:16,1,-1.48333,2.2,2.28333,0.299073,1,1,51187.1,33748.9,1692,0.96269518,-1.7236872,16.210205,278.66333,5.93393,286.767,11.922,7.573,29.0695,23.6041
1980-03-11 10:58:37,1,-2.66,0.72,0.66,0.355528,1,1,61393.7,37085.9,1692,0.96269333,-1.7237492,16.198242,278.66309,5.66246,284.292,2.01831,0.264131,31.8361,24.7436
1980-03-11 10:59:58,1,-1.53333,2.63333,2.06667,0.223607,1,1,67926.9,32231.6,1692,0.96269149,-1.7238111,16.186279,278.66284,5.53501,289.35,9.50766,5.28343,33.4872,23.0674
1980-03-11 11:01:19,1,-2.24,-1.18,-0.6,0.126491,1,1,50205.5,37582.2,1692,0.96268773,-1.7239342,16.174316,278.6626,5.45543,285.751,-5.7546,-11.8851,28.7895,24.9086
1980-03-11 11:02:40,1,-3.26,-0.56,0.3,0.269815,1,1,37516.8,36193.9,1692,0.96268588,-1.7239962,16.162354,278.66235,5.35091,278.615,-3.11866,-7.25569,24.8869,24.4442
1980-03-11 11:04:01,1,-1.76,-1.5,-0.76,0.756836,1,1,39626.2,26888.3,1692,0.96268219,-1.7241201,16.150391,278.66211,4.95592,292.466,-9.76185,-10.7908,25.577,21.0688
1980-03-11 11:05:22,1,-2.9,-1.04,-0.02,0.554977,1,1,36681.0,29919.8,1692,0.96268034,-1.7241821,16.134521,278.66187,4.4306,280.268,1.15175,0.192676,24.6081,22.2248
1980-03-11 11:06:43,1,-2.28,-1.46,-0.1,0.481664,1,1,39040.5,39194.0,1692,0.96267849,-1.7242441,16.122559,278.66162,4.87008,286.168,-1.27536,-0.293902,25.3873,25.4371
1980-03-11 11:08:04,1,-2.24,-1.56,-0.26,0.66873,1,1,51865.4,36274.7,1692,0.96267474,-1.7243681,16.110596,278.66138,5.18636,284.821,3.13879,-5.84737,29.2615,24.4714
1980-03-11 11:09:25,1,-2.92,-0.12,-1.32,0.229783,1,1,46501.2,38736.6,1692,0.96267289,-1.7244301,16.098633,278.66113,5.3751,288.135,4.6755,-2.98251,27.707,25.2882
1980-03-11 11:10:46,1,-3.18,0.12,-0.94,0.396989,1,1,41691.3,37123.1,1692,0.96267104,-1.7244921,16.08667,278.66089,5.26679,288.162,5.43839,-1.35321,26.235,24.756
1980-03-11 11:12:07,1,-3.32,0.04,-1.0,0.236643,1,1,34372.2,36201.1,1692,0.96266735,-1.7246161,16.074707,278.66064,4.63651,291.346,4.99711,-0.402452,23.8211,24.4466
1980-03-11 11:13:28,1,-2.88,-0.5,-0.8,0.331059,1,1,37000.0,47604.2,1692,0.9626655,-1.724678,16.058838,278.6604,5.22185,293.196,0.936065,-0.75715,24.7149,28.0337
1980-03-11 11:14:49,1,-3.36,0.58,0.06,0.377359,1,1,42921.1,40232.6,1692,0.96266365,-1.72474,16.046875,278.66016,5.0455,288.905,8.47847,3.06044,26.6191,25.7719
1980-03-11 11:16:10,1,0.5,2.7,1.56667,0.149071,1,1,59162.0,30338.0,1692,0.9626599,-1.724864,16.034912,278.65991,5.49521,302.771,23.0869,7.48695,31.2521,22.3796
1980-03-11 11:17:31,1,-1.24,2.28,0.64,0.32,1,1,53214.9,41152.3,1692,0.96265805,-1.724926,16.022949,278.65967,5.23012,303.149,14.7219,9.5064,29.6397,26.0648
1980-03-11 11:18:52,1,-1.21667,1.61667,0.733333,0.261406,1,1,55945.1,51354.9,1692,0.9626562,-1.724988,16.010986,278.65942,5.60925,303.825,18.531,9.09672,30.3906,29.1172
1980-03-11 11:20:13,1,-0.616667,1.48333,0.916667,0.459166,1,1,60577.7,42721.9,1692,0.9626525,-1.725112,15.999023,278.65918,5.35437,302.697,17.3872,4.02354,31.6238,26.5573
1980-03-11 11:21:34,1,-1.46,2.68,0.72,0.203961,1,1,53871.5,39466.2,1692,0.96265066,-1.725173,15.983154,278.65894,5.39419,298.918,12.1559,6.84014,29.8221,25.5253
1980-03-11 11:22:55,1,-0.88,3.06,0.84,0.338231,1,1,48905.5,33540.9,1692,0.96264881,-1.725235,15.971191,278.65869,5.18246,299.352,7.91075,8.57816,28.4143,23.5313
1980-03-11 11:24:16,1,-1.26,3.06,0.8,0.291204,1,1,51426.8,32467.0,1692,0.96264505,-1.725359,15.959229,278.65845,5.26531,298.474,9.0396,10.3259,29.1375,23.1515
1980-03-11 11:25:37,1,-1.24,3.26,0.88,0.224499,1,1,48537.4,34741.7,1692,0.96264321,-1.725421,15.947266,278.6582,4.9052,300.451,4.15734,9.85736,28.3071,23.9488
1980-03-11 11:26:58,1,-0.95,3.41667,0.8,0.271825,1,1,40206.9,31890.3,1692,0.96264136,-1.7254829,15.935303,278.65796,4.60338,303.456,5.19421,10.1918,25.7637,22.9449
1980-03-11 11:28:19,1,-0.66,3.56,0.94,0.327414,1,1,55022.9,37796.1,1692,0.96263766,-1.7256069,15.92334,278.65771,5.17515,303.157,6.30952,9.83949,30.1391,24.9794
1980-03-11 11:29:40,1,-0.866667,3.45,1.0,0.35316,1,1,38241.1,33951.0,1692,0.96263582,-1.7256689,15.907471,278.65747,5.11738,303.481,4.62917,8.81441,25.126,23.6747
1980-03-11 11:31:01,1,-0.48,3.56,0.94,0.26533,1,1,40621.6,36223.5,1692,0.96263206,-1.7257929,15.895264,278.65698,4.9515,304.037,5.10713,7.25811,25.8962,24.4542
1980-03-11 11:32:22,1,-0.26,3.68,0.78,0.256125,1,1,44864.6,30865.7,1692,0.96263021,-1.7258549,15.883545,278.65698,5.13451,302.816,5.93283,9.8731,27.2151,22.5734
1980-03-11 11:33:43,1,-0.56,3.52,1.1,0.357771,1,1,50927.3,38236.3,1692,0.96262836,-1.7259169,15.871582,278.65674,4.97374,305.577,3.63453,11.7576,28.9957,25.1244
1980-03-11 11:35:04,1,-0.24,3.5,1.5,0.26533,1,1,39537.2,37227.4,1692,0.96262467,-1.7260408,15.859375,278.65625,5.25938,304.515,5.48145,12.296,25.5482,24.7907
1980-03-11 11:36:25,1,-0.36,3.32,1.1,0.282843,1,1,63813.0,40037.5,1692,0.96262282,-1.7261028,15.847656,278.65625,5.73745,306.294,8.11981,11.9664,32.4573,25.7094
1980-03-11 11:37:46,1,-0.533333,3.35,1.43333,0.305959,1,1,36528.3,31388.3,1692,0.96262097,-1.7261648,15.831787,278.65601,5.32591,305.722,8.28738,13.8313,24.5569,22.7636
1980-03-11 11:39:07,1,-0.516667,3.41667,1.5,0.257121,1,1,42806.5,37867.7,1692,0.96261722,-1.7262888,15.81958,278.65552,5.26026,304.038,5.41387,14.1948,26.5835,25.003
1980-03-11 11:40:28,1,-0.36,3.6,1.66,0.20199,1,1,43315.2,36372.8,1692,0.96261537,-1.7263508,15.807861,278.65552,5.21173,305.602,7.22633,15.9555,26.741,24.5045
1980-03-11 11:41:49,1,-0.46,3.58,1.98,0.263818,1,1,45935.1,38129.9,1692,0.96261352,-1.7264128,15.795898,278.65527,5.32524,305.944,4.65294,18.1511,27.5379,25.0894
1980-03-11 11:43:10,1,-0.9,3.58333,1.25,0.322318,1,1,40223.3,32905.8,1692,0.96260983,-1.7265358,15.783691,278.65479,5.09403,305.325,7.47926,15.6896,25.7689,23.3074
1980-03-11 11:45:52,1,-0.46,3.92,1.9,0.178885,1,1,39797.9,33236.2,1692,0.96260613,-1.7266598,15.756104,278.65454,5.07902,305.089,6.44427,16.4611,25.6323,23.4241
1980-03-11 11:47:13,1,0.08,3.84,1.48,0.183303,1,1,44361.5,36868.1,1692,0.96260238,-1.7267838,15.743896,278.65405,5.26579,303.631,4.0318,16.2856,27.0621,24.6708
1980-03-11 11:48:34,1,0.2,3.9,1.58333,0.318416,1,1,39287.4,37788.5,1692,0.96260053,-1.7268457,15.732178,278.65405,5.02966,305.552,4.48693,15.863,25.4674,24.9769
1980-03-11 11:49:55,1,-0.78,3.46,1.52,0.183303,1,1,53079.3,37928.8,1692,0.96259868,-1.7269077,15.720215,278.65381,5.28916,301.832,7.64966,15.8388,29.602,25.0232
1980-03-11 11:51:16,1,-0.4,3.6,1.1,0.282843,1,1,37048.6,35123.0,1692,0.96259499,-1.7270317,15.708008,278.65332,5.15088,304.315,9.03953,13.9519,24.7311,24.0799
1980-03-11 11:52:37,1,0.1,3.56,1.34,0.291204,1,1,45812.4,37837.9,1692,0.96259314,-1.7270937,15.696289,278.65332,5.18289,303.335,5.99522,14.779,27.5011,24.9932
1980-03-11 11:53:58,1,-0.266667,3.21667,1.23333,0.25,1,1,39138.3,34354.5,1692,0.96259123,-1.7271557,15.684326,278.65308,4.98371,304.302,7.07178,16.3532,25.419,23.815
1980-03-11 11:55:19,1,-0.666667,3.35,1.56667,0.341971,1,1,47581.3,36561.1,1692,0.96258754,-1.7272797,15.668213,278.65259,5.33779,301.304,1.90525,19.4906,28.027,24.5679
1980-03-11 11:56:40,-1,nan,nan,nan,nan,1,-3,nan,nan,1692,0.96258569,-1.7273417,15.656494,278.65259,nan,306.107,4.48697,15.7269,nan,nan
1980-03-11 11:58:01,-1,nan,nan,nan,nan,1,3,nan,nan,1692,0.96258199,-1.7274656,15.644287,278.6521,nan,302.038,6.1361,13.3106,nan,nan
1980-03-11 11:59:22,-1,nan,nan,nan,nan,1,3,nan,nan,1692,0.96258014,-1.7275276,15.632324,278.65186,nan,302.225,5.11515,14.1645,nan,nan
1980-03-11 12:00:43,-1,nan,nan,nan,nan,1,3,nan,nan,1692,0.9625783,-1.7275896,15.620605,278.65186,nan,300.828,5.89627,15.5309,nan,nan
1980-03-11 12:02:04,-1,nan,nan,nan,nan,1,3,nan,nan,1692,0.96257454,-1.7277126,15.608398,278.65137,nan,302.167,7.46045,14.8631,nan,nan
1980-03-11 12:03:25,-1,nan,nan,nan,nan,1,3,nan,nan,1692,0.96257269,-1.7277746,15.592529,278.65112,nan,301.573,6.89651,12.0483,nan,nan
1980-03-11 12:04:46,-1,nan,nan,nan,nan,1,3,nan,nan,1692,0.96257085,-1.7278366,15.580566,278.65088,nan,301.89,6.35398,13.8648,nan,nan
1980-03-11 12:06:07,-1,nan,nan,nan,nan,1,3,nan,nan,1692,0.96256709,-1.7279606,15.568604,278.65063,nan,300.864,6.4519,14.1386,nan,nan
1980-03-11 12:07:28,-1,nan,nan,nan,nan,1,3,nan,nan,1692,0.96256524,-1.7280226,15.556641,278.65039,nan,302.666,6.39191,14.2197,nan,nan
1980-03-11 12:08:49,-1,nan,nan,nan,nan,1,3,nan,nan,1692,0.9625634,-1.7280846,15.544678,278.65015,nan,301.723,7.41206,13.0016,nan,nan
1980-03-11 12:10:10,1,-0.483333,3.76667,1.83333,0.30957,1,1,35931.1,33121.1,1692,0.96255964,-1.7282085,15.532715,278.6499,4.59953,302.457,9.15039,13.6524,24.3553,23.3835
1980-03-11 12:11:31,1,-0.52,3.8,1.74,0.334664,1,1,40463.1,32610.2,1692,0.96255779,-1.7282705,15.516846,278.64966,4.87539,300.026,6.34156,14.8628,25.8456,23.2025
1980-03-11 12:12:52,1,-0.14,4.2,1.74,0.20199,1,1,28757.8,32366.4,1692,0.96255594,-1.7283325,15.504883,278.64941,4.45441,301.193,6.15951,13.3522,21.7889,23.1156
1980-03-11 12:14:13,1,-0.36,3.88,1.98,0.299333,1,1,44067.6,34758.0,1692,0.96255225,-1.7284565,15.49292,278.64917,5.51724,300.183,6.66519,11.4084,26.9723,23.9544
1980-03-11 12:15:34,1,0.32,3.96,1.58,0.256125,1,1,42091.6,36865.7,1692,0.96255034,-1.7285185,15.480957,278.64893,5.00548,300.967,8.0339,13.2426,26.3606,24.67
1980-03-11 12:16:55,1,0.08,3.84,1.72,0.256125,1,1,41103.6,35716.6,1692,0.96254849,-1.7285805,15.468994,278.64868,5.2112,296.956,6.95324,13.117,26.0494,24.2825
1980-03-11 12:18:16,1,0.04,4.0,1.96,0.311127,1,1,35418.5,34249.0,1692,0.9625448,-1.7287045,15.457031,278.64844,5.10469,300.994,6.95349,15.7945,24.1809,23.7784
1980-03-11 12:19:37,1,0.22,3.88,2.26,0.183303,1,1,43066.2,38060.6,1692,0.96254289,-1.7287664,15.441162,278.64819,4.98821,300.711,5.88658,14.8789,26.6641,25.0666
1980-03-11 12:20:58,1,0.483333,3.7,2.21667,0.243812,1,1,31692.3,34040.4,1692,0.96254104,-1.7288284,15.429199,278.64795,4.83474,301.977,5.4328,17.6278,22.8736,23.7058
1980-03-11 12:22:19,1,-0.2,3.78,2.06,0.32249,1,1,41051.9,33596.4,1692,0.96253735,-1.7289515,15.417236,278.64771,4.80361,299.08,4.08558,12.4174,26.033,23.5507
1980-03-11 12:23:40,1,0.5,3.86,2.7,0.387814,1,1,36401.6,36229.5,1692,0.9625355,-1.7290134,15.405273,278.64746,4.74274,304.479,4.43023,14.398,24.5142,24.4562
1980-03-11 12:25:01,1,0.1,3.8,2.46,0.195959,1,1,42608.8,34011.3,1692,0.96253175,-1.7291374,15.393066,278.64697,5.02002,299.143,7.56853,15.4721,26.5221,23.6957
1980-03-11 12:29:04,1,0.02,3.78,2.3,0.164924,1,1,37625.5,35204.9,1692,0.96252429,-1.7293854,15.353271,278.64624,5.27059,302.658,6.97294,15.4268,24.9229,24.1079
1980-03-11 12:30:25,1,-0.24,4.12,2.54,0.28,1,1,38438.3,34337.6,1692,0.96252245,-1.7294474,15.341553,278.64624,4.9003,299.314,3.30747,17.6736,25.1907,23.8091
1980-03-11 12:31:46,1,-0.05,4.23333,2.08333,0.229734,1,1,41576.1,34386.3,1692,0.9625206,-1.7295094,15.32959,278.646,5.07391,301.62,6.50837,14.2927,26.1987,23.826
1980-03-11 12:33:07,1,-0.08,4.32,2.28,0.229783,1,1,42347.7,38018.0,1692,0.96251684,-1.7296333,15.317383,278.64551,5.05777,301.229,2.33345,15.9475,26.4407,25.0526
1980-03-11 12:34:28,1,-0.58,3.96,2.06,0.26533,1,1,29919.0,34958.6,1692,0.962515,-1.7296953,15.30542,278.64526,5.22873,299.421,9.07742,12.5319,22.2245,24.0234
1980-03-11 12:35:49,1,-0.166667,4.16667,2.16667,0.251661,1,1,37384.8,38998.6,1692,0.96251315,-1.7297573,15.289795,278.64526,5.35575,299.381,4.59115,15.0898,24.8431,25.3736
1980-03-11 12:37:10,1,-0.5,4.0,2.14,0.195959,1,1,28157.5,36467.3,1692,0.96250945,-1.7298813,15.277588,278.64478,5.0121,301.044,4.0414,16.6109,21.5603,24.5363
1980-03-11 12:38:31,1,-0.3,3.86,2.3,0.241661,1,1,45029.8,38189.3,1692,0.96250755,-1.7299433,15.265625,278.64453,6.13114,306.458,5.30094,17.9878,27.2652,25.109
1980-03-11 12:39:52,1,1.38333,3.41667,3.46667,0.380789,1,1,44810.2,31869.0,1692,0.9625057,-1.7300053,15.253906,278.64453,5.43032,314.396,-0.29194,25.7582,27.1986,22.9373
1980-03-11 12:41:13,1,-0.25,3.85,3.03333,0.539032,1,1,46935.9,33942.5,1692,0.962502,-1.7301283,15.241699,278.64404,4.9928,311.685,-2.9541,20.8723,27.8362,23.6717
1980-03-11 12:42:34,1,3.68333,2.05,4.15,0.315788,1,1,26229.7,39075.0,1692,0.9625001,-1.7301903,15.229736,278.6438,4.17741,297.417,-0.658839,14.4593,20.8092,25.3985
1980-03-11 12:43:55,1,3.34,2.16,4.1,0.229783,1,1,31221.9,40988.3,1692,0.96249825,-1.7302523,15.214111,278.6438,5.10205,300.458,1.24024,16.3915,22.7032,26.0129
1980-03-11 12:45:16,1,3.38,1.64,4.1,0.219089,1,1,24354.2,29678.3,1692,0.96249455,-1.7303762,15.201904,278.64331,4.31646,297.378,4.17067,14.8718,20.0514,22.1349
1980-03-11 12:46:37,1,3.08333,1.83333,4.1,0.2651,1,1,29108.7,34974.8,1692,0.9624927,-1.7304382,15.189941,278.64307,4.68358,296.727,7.68674,15.5026,21.9214,24.029
1980-03-11 12:47:58,1,2.92,1.58,3.8,0.226274,1,1,36999.3,30988.3,1692,0.9624908,-1.7305002,15.178223,278.64307,5.75502,300.774,6.30491,19.3055,24.7147,22.6181
1980-03-11 12:49:19,1,2.92,1.58,4.04,0.24,1,1,36745.8,33156.8,1692,0.9624871,-1.7306242,15.166016,278.64258,5.53884,298.344,7.54016,19.3738,24.6298,23.3961
1980-03-11 12:50:40,1,3.0,1.64,4.26,0.20199,1,1,37419.8,34433.0,1692,0.96248525,-1.7306862,15.154053,278.64233,5.06856,299.461,5.17337,14.9793,24.8547,23.8421
1980-03-11 12:52:01,1,3.14,1.68,4.18,0.256125,1,1,29798.0,39422.3,1692,0.9624815,-1.7308102,15.138184,278.64209,4.55518,296.825,2.83415,13.638,22.1795,25.5111
1980-03-11 12:53:22,1,2.88333,1.71667,4.18333,0.278388,1,1,31801.3,33624.7,1692,0.96247965,-1.7308722,15.126221,278.64185,4.69653,301.771,4.4836,15.0705,22.9129,23.5607
1980-03-11 12:56:04,1,2.76,1.9,3.64,0.277128,1,1,28426.3,36415.6,1692,0.96247405,-1.7310581,15.102295,278.64136,5.18009,301.003,4.15885,17.0996,21.663,24.5189
1980-03-11 12:57:25,1,2.92,1.96,3.94,0.32,1,1,39927.7,41889.4,1692,0.9624722,-1.7311201,15.090332,278.64111,5.17758,301.422,2.08257,17.2221,25.6741,26.2972
1980-03-11 12:58:46,1,3.0,1.6,4.1,9.15513e-16,1,1,21748.2,30627.9,1692,0.96247035,-1.7311821,15.078369,278.64087,4.35994,297.604,1.21529,15.3364,18.9483,22.4862
1980-03-11 13:00:07,1,3.04,1.22,4.3,0.303315,1,1,25477.4,40158.1,1692,0.96246666,-1.7313061,15.0625,278.64063,4.79251,297.991,1.17172,15.3666,20.5086,25.7481
1980-03-11 13:01:28,1,2.66,1.22,4.36,0.32,1,1,32159.2,38539.7,1692,0.96246475,-1.7313671,15.050537,278.64038,4.97653,299.142,1.99871,17.7297,23.0415,25.2239
1980-03-11 13:02:49,1,2.92,0.76,4.68,0.24,1,1,26040.1,38606.0,1692,0.9624629,-1.7314291,15.038574,278.64014,4.54413,296.872,0.509399,14.2275,20.7338,25.2456
1980-03-11 13:04:10,1,3.0,0.8,4.66667,0.149071,1,1,32278.9,32906.6,1692,0.96245915,-1.7315531,15.026367,278.63965,4.70157,299.28,1.77008,12.747,23.0843,23.3077
1980-03-11 13:05:31,1,2.7,0.633333,4.73333,0.247207,1,1,26461.0,40842.4,1692,0.9624573,-1.7316151,15.014648,278.63965,4.98728,302.046,2.28298,13.389,20.9007,25.9665
1980-03-11 13:06:52,1,3.04,0.64,4.6,0.20199,1,1,32837.9,37080.8,1692,0.96245545,-1.7316771,15.002686,278.6394,4.92694,300.498,1.37832,14.092,23.2833,24.7419
1980-03-11 13:08:13,1,2.96,0.06,4.36,0.301993,1,1,26428.6,40302.8,1692,0.9624517,-1.731801,14.986572,278.63892,4.76578,299.855,1.52771,16.5101,20.8879,25.7944
1980-03-11 13:09:34,1,2.8,0.65,4.26667,0.796695,1,1,39010.6,34401.0,1692,0.96244985,-1.731863,14.974854,278.63892,5.29664,302.511,2.18717,18.286,25.3775,23.8311
1980-03-11 13:10:55,1,2.32,-0.52,4.58,0.537401,1,1,35631.2,43883.6,1692,0.962448,-1.731925,14.962891,278.63867,5.60101,299.428,2.52468,14.9475,24.2534,26.9159
1980-03-11 13:12:16,1,2.28,-0.8,4.52,0.524595,1,1,34739.4,35739.0,1692,0.96244425,-1.732049,14.950684,278.63818,4.98962,300.604,3.22249,14.8825,23.948,24.2901
1980-03-11 13:13:37,1,1.24,2.06,3.6,0.291204,1,1,40127.9,31146.0,1692,0.9624424,-1.732111,14.938965,278.63818,5.63144,307.555,-5.96485,23.7651,25.7384,22.6756
1980-03-11 13:14:58,1,0.9,2.9,2.35,0.314907,1,1,27571.0,30379.7,1692,0.96244049,-1.732173,14.927002,278.63794,5.34118,305.009,4.85237,16.8617,21.3346,22.3949
1980-03-11 13:16:19,1,1.25,2.75,2.75,0.421307,1,1,35247.7,35487.3,1692,0.9624368,-1.7322969,14.910889,278.63745,6.3359,302.31,2.89046,18.4184,24.1225,24.2044
1980-03-11 13:17:40,1,1.46667,2.05,3.46667,0.383333,1,1,28617.1,30322.1,1692,0.96243489,-1.7323589,14.89917,278.63745,6.15687,303.55,-0.314961,22.6591,21.7356,22.3737
1980-03-11 13:19:01,1,1.21667,1.9,3.73333,0.472875,1,1,35601.7,38889.9,1692,0.96243119,-1.7324829,14.886963,278.63696,6.03062,302.0,5.64085,15.1478,24.2434,25.3382
1980-03-11 13:20:22,1,1.12,2.28,3.44,0.285657,1,1,26746.0,33290.3,1692,0.96242934,-1.7325449,14.875,278.63672,5.57384,302.455,1.94396,18.5338,21.013,23.4432
1980-03-11 13:21:43,1,1.23333,2.03333,3.43333,0.258199,1,1,23131.9,37213.4,1692,0.96242744,-1.7326059,14.863037,278.63647,6.01262,301.403,4.05703,17.9405,19.5417,24.7861
1980-03-11 13:23:04,1,1.28333,1.98333,3.56667,0.32914,1,1,26931.6,36355.5,1692,0.96242374,-1.7327299,14.851074,278.63623,5.72825,302.038,2.17728,16.7622,21.0857,24.4987
1980-03-11 13:24:25,1,1.32,1.86,3.6,0.32249,1,1,29113.2,35517.8,1692,0.96242183,-1.7327919,14.835205,278.63599,6.60334,301.974,3.14821,19.2068,21.9232,24.2148
1980-03-11 13:25:46,1,1.31667,1.46667,3.88333,0.261406,1,1,24567.7,30820.1,1692,0.96241999,-1.7328539,14.823242,278.63574,6.26385,302.509,4.31509,18.8281,20.1391,22.5567
1980-03-11 13:27:07,1,1.3,1.78,3.78,0.243311,1,1,31768.6,35032.4,1692,0.96241623,-1.7329779,14.811279,278.6355,6.84584,300.234,6.87495,19.1726,22.9011,24.0488
1980-03-11 13:28:28,1,1.16667,1.53333,3.96667,0.288675,1,1,22694.4,30933.9,1692,0.96241438,-1.7330399,14.799316,278.63525,6.38071,301.303,4.91643,18.0304,19.3561,22.5983
1980-03-11 13:29:49,1,1.3,1.28333,4.1,0.247768,1,1,30735.6,37568.6,1692,0.96241254,-1.7331018,14.787354,278.63501,6.497,301.166,6.30326,17.7674,22.5257,24.9041
1980-03-11 13:31:10,1,2.32,1.76,3.32,0.24,1,1,27878.9,37760.6,1692,0.96240878,-1.7332258,14.775391,278.63477,5.47094,296.141,2.86968,20.6359,21.4534,24.9676
1980-03-11 13:32:31,1,2.76667,1.51667,3.48333,0.273861,1,1,37977.5,39929.8,1692,0.96240693,-1.7332878,14.759521,278.63452,5.97251,296.776,6.16852,16.5951,25.0392,25.6748
1980-03-11 13:33:52,1,1.58,1.42,4.24,0.183303,1,1,41352.9,37874.3,1692,0.96240509,-1.7333498,14.747559,278.63428,6.03922,300.361,5.04916,16.2409,26.1283,25.0052
1980-03-11 13:35:13,1,2.16,1.54,3.88,0.26533,1,1,32622.9,41030.4,1692,0.96240133,-1.7334738,14.735596,278.63403,6.00224,297.948,7.10145,14.7107,23.207,26.0262